PROFILE

 METAR AND TAF INFORMATION
ADDS - METARS form results

(2315 UTC 26 May 2019)
http://aviationweather.gov/metar/data/
 
DAAG 262300Z 24004KT 9999 FEW020 15/14 Q1016
DAAG 262230Z 24003KT 9999 FEW020 15/14 Q1016
TAF DAAG 261700Z 2618/2718 35012KT 9999 SCT020 SCT100 TEMPO 2618/2622 FEW020TCU FEW026CB BECMG 2619/2623 VRB02KT 

 AIRPORT MAP

 RUNWAY INFORMATION
Runway 05 Runway length 11483 ft Runway width 197 ft
Runway elevation 72 ft Runway displaced threshold 0 ft Runway heading 53
Runway 23 Runway length 11483 ft Runway width 197 ft
Runway elevation 82 ft Runway displaced threshold 0 ft Runway heading 233
Runway 09 Runway length 11483 ft Runway width 148 ft
Runway elevation 56 ft Runway displaced threshold 0 ft Runway heading 92
Runway 27 Runway length 11483 ft Runway width 148 ft
Runway elevation 82 ft Runway displaced threshold 0 ft Runway heading 272

 AIRPORT FREQUENCIES
Type APP Name ALGER APP Frequency 121.4 MHZ
Type GND Name ALGER GND Frequency 121.8 MHZ
Type TWR Name ALGER TWR Frequency 118.7 MHZ

 AIRPORT NEAR NAVIGATION AIDS
Type VOR-DME Name Alger Frequency 112500 KHZ
Type NDB Name Houari Boumediene Frequency 416 KHZ
Type VOR Name Alger Frequency 113900 KHZ
Type NDB Name Houari Boumediene Frequency 370 KHZ